Ft Lauderdale, FL

2:08 PM EDT on May 24, 2018 (GMT -0400)
Fort Lauderdale-Hollywood International

Weather History for KFLL - October, 2011

Change the Weather History Date:

Monday, October 31, 2011

  Actual Average Record
Temperature  
Mean Temperature 76 °F 78 °F  
Max Temperature 81 °F 84 °F 90 °F (1922)
Min Temperature 70 °F 73 °F 52 °F (1953)
Degree Days  
Heating Degree Days 0 0  
Month to date heating degree days 0 0  
Since 1 July heating degree days 0 0  
Cooling Degree Days 11 13  
Month to date cooling degree days 422 482  
Year to date cooling degree days 4275 4194  
Growing Degree Days 26 (Base 50)    
Moisture  
Dew Point 73 °F    
Average Humidity 87    
Maximum Humidity 100    
Minimum Humidity 74    
Precipitation  
Precipitation 1.94 in 0.16 in 10.00 in (1969)
Month to date precipitation 15.52 6.82  
Year to date precipitation 38.87 56.48  
Snow  
Snow 0.00 in - - ()
Month to date snowfall 0.0  
Since 1 July snowfall 0.0  
Since 1 September snowfall 0.0  
Snow Depth 0.00 in    
Sea Level Pressure  
Sea Level Pressure 29.96 in    
Wind  
Wind Speed 8 mph (North)    
Max Wind Speed 20 mph    
Max Gust Speed 35 mph    
Visibility 6 miles    
Events Fog , Rain , Thunderstorm    
T = Trace of Precipitation, MM = Missing Value Source: NWS Daily Summary

Daily Weather History Graph

Daily Weather History Graph

Search for Another Location

Airport or City:

Astronomy

Oct. 31, 2011 Rise Set
Actual Time 7:28 AM EDT 6:39 PM EDT
Civil Twilight 7:04 AM EDT 7:03 PM EDT
Nautical Twilight 6:37 AM EDT 7:30 PM EDT
Astronomical Twilight 6:10 AM EDT 7:57 PM EDT
Moon 12:22 PM EDT (10/31) 11:24 PM EDT (10/31)
Length of Visible Light 11h 58m
Length of Day
11h 11m
Waxing Crescent, 29% of the Moon is Illuminated
Oct 31
Waxing Crescent
Nov 2
First Quarter
Nov 10
Full
Nov 18
Last Quarter
Nov 25
New

Hourly Weather History & Observations

Time (EDT) Temp. Heat Index Dew Point Humidity Pressure Visibility Wind Dir Wind Speed Gust Speed Precip Events Conditions
12:05 AM 75.2 °F - 75.2 °F 100% 29.99 in 1.0 mi East 15.0 mph - 0.11 in Rain Heavy Rain
12:10 AM 75.2 °F - 75.2 °F 100% 29.99 in 1.2 mi ENE 13.8 mph - 0.21 in Rain Heavy Rain
12:19 AM 75.2 °F - 75.2 °F 100% 30.00 in 0.5 mi NE 13.8 mph 21.9 mph 0.70 in Fog , Rain Heavy Rain
12:26 AM 75.2 °F - 75.2 °F 100% 29.98 in 0.2 mi NNE 21.9 mph 26.5 mph 1.19 in Fog , Rain , Thunderstorm Heavy Thunderstorms and Rain
12:32 AM 73.4 °F - 73.4 °F 100% 29.97 in 0.2 mi North 27.6 mph 33.4 mph 1.32 in Fog , Rain , Thunderstorm Heavy Thunderstorms and Rain
12:39 AM 75.2 °F - 73.4 °F 94% 29.97 in 3.0 mi NNE 15.0 mph 33.4 mph 1.36 in Rain Rain
12:51 AM 75.2 °F - 73.4 °F 94% 29.98 in 1.0 mi WNW 19.6 mph 28.8 mph 1.61 in Rain , Thunderstorm Heavy Thunderstorms and Rain
12:53 AM 73.9 °F - 73.9 °F 100% 29.98 in 0.8 mi NNW 20.7 mph 38.0 mph 1.66 in Rain , Thunderstorm Heavy Thunderstorms and Rain
1:14 AM 73.4 °F - 73.4 °F 100% 29.98 in 0.5 mi NNW 11.5 mph 20.7 mph 0.29 in Fog , Rain Heavy Rain
1:40 AM 73.4 °F - 73.4 °F 100% 29.97 in 3.0 mi NW 6.9 mph - 0.69 in Rain Heavy Rain
1:53 AM 75.0 °F - 75.0 °F 100% 29.97 in 10.0 mi WNW 3.5 mph - 0.69 in   Overcast
2:47 AM 73.4 °F - 73.4 °F 100% 29.96 in 2.0 mi NNW 8.1 mph - 0.21 in Rain Heavy Rain
2:50 AM 73.4 °F - 73.4 °F 100% 29.96 in 1.0 mi NNW 11.5 mph - 0.27 in Rain Heavy Rain
2:53 AM 73.0 °F - 73.0 °F 100% 29.97 in 1.0 mi Variable 4.6 mph - 0.29 in Rain Heavy Rain
3:01 AM 73.4 °F - 73.4 °F 100% 29.97 in 0.8 mi North 12.7 mph - 0.24 in Rain Rain
3:05 AM 73.4 °F - 73.4 °F 100% 29.96 in 0.2 mi NNE 13.8 mph - 0.37 in Fog , Rain Heavy Rain
3:13 AM 73.4 °F - 73.4 °F 100% 29.97 in 1.5 mi North 15.0 mph 23.0 mph 0.48 in Rain , Thunderstorm Heavy Thunderstorms and Rain
3:33 AM 73.4 °F - 73.4 °F 100% 29.94 in 4.0 mi NNE 15.0 mph - 0.82 in Rain , Thunderstorm Light Thunderstorms and Rain
3:49 AM 73.4 °F - 73.4 °F 100% 29.94 in 1.5 mi NNE 18.4 mph 24.2 mph 0.96 in Rain , Thunderstorm Heavy Thunderstorms and Rain
3:53 AM 73.0 °F - 73.0 °F 100% 29.94 in 2.5 mi NNE 17.3 mph - 0.96 in Rain , Thunderstorm Heavy Thunderstorms and Rain
4:00 AM 73.4 °F - 73.4 °F 100% 29.94 in 6.0 mi NE 13.8 mph - 0.00 in Rain , Thunderstorm Light Thunderstorms and Rain
4:16 AM 73.4 °F - 73.4 °F 100% 29.96 in 6.0 mi Variable 3.5 mph - 0.00 in Rain , Thunderstorm Light Thunderstorms and Rain
4:47 AM 73.4 °F - 73.4 °F 100% 29.96 in 7.0 mi ENE 6.9 mph - 0.00 in Rain Light Rain
4:53 AM 73.0 °F - 73.0 °F 100% 29.96 in 7.0 mi NE 9.2 mph - 0.00 in Rain Light Rain
5:53 AM 73.9 °F - 73.0 °F 97% 29.95 in 10.0 mi ENE 8.1 mph - 0.06 in   Overcast
6:53 AM 73.0 °F - 73.0 °F 100% 29.96 in 10.0 mi East 10.4 mph - 0.00 in   Mostly Cloudy
7:53 AM 73.9 °F - 72.0 °F 93% 29.95 in 10.0 mi ESE 4.6 mph - 0.00 in   Overcast
8:53 AM 75.0 °F - 73.0 °F 94% 29.96 in 10.0 mi SSW 3.5 mph - N/A   Mostly Cloudy
9:53 AM 78.1 °F - 73.0 °F 84% 29.97 in 10.0 mi South 4.6 mph - N/A   Scattered Clouds
10:53 AM 79.0 °F - 71.1 °F 77% 29.97 in 10.0 mi SSE 5.8 mph - N/A   Overcast
11:53 AM 79.0 °F - 71.1 °F 77% 29.97 in 10.0 mi South 6.9 mph - N/A   Mostly Cloudy
12:53 PM 81.0 °F 84.9 °F 71.1 °F 72% 29.94 in 10.0 mi SSE 8.1 mph - N/A   Mostly Cloudy
1:53 PM 79.0 °F - 73.9 °F 84% 29.91 in 10.0 mi South 5.8 mph - 0.00 in   Overcast
2:53 PM 79.0 °F - 73.0 °F 82% 29.91 in 10.0 mi SW 8.1 mph - N/A   Mostly Cloudy
3:00 PM 78.8 °F - 73.4 °F 83% 29.91 in 8.0 mi SW 8.1 mph - 0.00 in Rain Light Rain
3:31 PM 75.2 °F - 73.4 °F 94% 29.91 in 5.0 mi NW 10.4 mph - N/A Rain Light Rain
3:53 PM 73.9 °F - 72.0 °F 93% 29.91 in 4.0 mi WNW 8.1 mph - N/A Rain Light Rain
4:53 PM 75.0 °F - 73.0 °F 94% 29.91 in 10.0 mi WNW 9.2 mph - N/A Rain Light Rain
5:01 PM 75.2 °F - 71.6 °F 89% 29.91 in 10.0 mi WNW 9.2 mph - N/A Rain Light Rain
5:16 PM 75.2 °F - 71.6 °F 89% 29.92 in 10.0 mi NW 10.4 mph - N/A Rain Light Rain
5:53 PM 73.0 °F - 71.1 °F 93% 29.93 in 10.0 mi North 12.7 mph - N/A Rain Light Rain
6:08 PM 73.4 °F - 71.6 °F 94% 29.93 in 10.0 mi North 10.4 mph - N/A   Overcast
6:24 PM 73.4 °F - 71.6 °F 94% 29.94 in 10.0 mi North 12.7 mph - N/A   Overcast
6:53 PM 72.0 °F - 70.0 °F 93% 29.94 in 10.0 mi North 13.8 mph - N/A   Mostly Cloudy
7:53 PM 72.0 °F - 69.1 °F 91% 29.97 in 10.0 mi North 6.9 mph - N/A   Partly Cloudy
8:53 PM 72.0 °F - 69.1 °F 91% 29.99 in 10.0 mi NNW 5.8 mph - N/A   Mostly Cloudy
9:53 PM 71.1 °F - 68.0 °F 90% 29.98 in 10.0 mi NNW 5.8 mph - N/A   Partly Cloudy
10:53 PM 71.1 °F - 68.0 °F 90% 29.99 in 10.0 mi NW 3.5 mph - N/A   Clear
11:53 PM 70.0 °F - 68.0 °F 93% 30.00 in 10.0 mi WNW 8.1 mph - N/A   Partly Cloudy